Weather History for Al Udeid, Qatar

Change the Weather History Date:

Wednesday, December 11, 2013

  Actual Average Record
Temperature  
Mean Temperature 64 °F -  
Max Temperature 72 °F - - ()
Min Temperature 57 °F - - ()
Growing Degree Days 14 (Base 50)    
Moisture  
Dew Point 52 °F    
Average Humidity 64    
Maximum Humidity 81    
Minimum Humidity 45    
Precipitation  
Precipitation 0.00 in - - ()
Sea Level Pressure  
Sea Level Pressure 30.05 in    
Wind  
Wind Speed 9 mph ()    
Max Wind Speed 15 mph    
Max Gust Speed -    
Visibility 6.2 miles    
Events      
T = Trace of Precipitation, MM = Missing Value Source: Averaged Metar Reports

Daily Weather History Graph

Daily Weather History Graph

Search for Another Location

Airport:

Trip Planner

Search our weather history database for the weather conditions in past years. The results will help you decide how hot, cold, wet, or windy it might be!

Date:

Astronomy

Dec. 11, 2013 Rise Set
Actual Time 6:09 AM AST 4:46 PM AST
Civil Twilight 5:44 AM AST 5:11 PM AST
Nautical Twilight 5:16 AM AST 5:39 PM AST
Astronomical Twilight 4:48 AM AST 6:07 PM AST
Moon 12:40 PM AST (12/11) 12:36 AM AST (12/11)
Length of Visible Light 11h 26m
Length of Day
10h 36m
Waxing Gibbous, 68% of the Moon is Illuminated
Dec 11
Waxing Gibbous
Dec 17
Full
Dec 25
Last Quarter
Jan 1
New
Jan 8
First Quarter

Hourly Weather History & Observations

Time (AST) Temp. Dew Point Humidity Pressure Visibility Wind Dir Wind Speed Gust Speed Precip Events Conditions
12:58 AM 60.4 °F 51.4 °F 72% 30.04 in 6.2 mi NNW 13.8 mph - N/A   Clear
1:58 AM 59.7 °F 51.3 °F 74% 30.04 in 6.2 mi NW 12.7 mph - N/A   Clear
2:58 AM 59.2 °F 50.7 °F 74% 30.03 in 6.2 mi NW 15.0 mph - N/A   Clear
3:58 AM 58.6 °F 49.5 °F 72% 30.03 in 6.2 mi NW 13.8 mph - N/A   Clear
4:58 AM 58.1 °F 49.3 °F 72% 30.05 in 6.2 mi NW 10.4 mph - N/A   Clear
5:58 AM 57.4 °F 48.7 °F 73% 30.07 in 6.2 mi NNW 10.4 mph - N/A   Clear
6:58 AM 57.7 °F 49.1 °F 73% 30.10 in 6.2 mi NW 10.4 mph - N/A   Clear
7:58 AM 60.4 °F 50.0 °F 68% 30.12 in 6.2 mi NW 11.5 mph - N/A   Clear
8:58 AM 63.3 °F 51.1 °F 64% 30.12 in 6.2 mi NNW 10.4 mph - N/A   Clear
9:58 AM 65.8 °F 52.2 °F 61% 30.11 in 6.2 mi North 13.8 mph - N/A   Clear
10:58 AM 68.2 °F 52.2 °F 56% 30.09 in 6.2 mi NNW 10.4 mph - N/A   Clear
11:09 AM 68.0 °F 51.8 °F 56% 30.09 in 6.2 mi NNW 10.4 mph - N/A   Clear
11:58 AM 70.0 °F 51.3 °F 51% 30.06 in 6.2 mi North 9.2 mph - N/A   Clear
12:58 PM 71.2 °F 50.4 °F 48% 30.04 in 6.2 mi North 8.1 mph - N/A   Clear
1:58 PM 72.0 °F 49.8 °F 46% 30.02 in 6.2 mi North 6.9 mph - N/A   Clear
2:58 PM 72.5 °F 49.8 °F 45% 30.00 in 6.2 mi North 5.8 mph - N/A   Clear
3:58 PM 72.0 °F 49.3 °F 45% 30.01 in 6.2 mi NNE 8.1 mph - N/A   Clear
4:58 PM 70.5 °F 52.0 °F 52% 30.01 in 6.2 mi ENE 9.2 mph - N/A   Clear
5:58 PM 68.4 °F 55.0 °F 62% 30.02 in 6.2 mi ENE 8.1 mph - N/A   Clear
6:58 PM 66.9 °F 55.4 °F 66% 30.03 in 6.2 mi East 5.8 mph - N/A   Clear
7:58 PM 65.7 °F 56.1 °F 71% 30.03 in 6.2 mi East 6.9 mph - N/A   Clear
8:58 PM 64.8 °F 55.8 °F 73% 30.03 in 6.2 mi East 5.8 mph - N/A   Clear
9:58 PM 64.6 °F 56.3 °F 74% 30.02 in 6.2 mi East 3.5 mph - N/A   Clear
10:58 PM 65.1 °F 57.0 °F 75% 30.00 in 6.2 mi ESE 5.8 mph - N/A   Clear
11:58 PM 61.9 °F 56.1 °F 81% 29.99 in 6.2 mi SSE 3.5 mph - N/A   Clear